When you browse on this site, cookies collect data to enhance your experience and personalize the content and advertising you see.
Visit our Privacy Policy to learn more. By continuing to use the site, you agree to this use of cookies and data.
  • In Hungary
  • List of Countries
  • For 7 days
  • Water Temperature
  • Satellite Maps
  • Weather Map
  • News
  • Weather Widgets
  • user-avatar
    Login

    Hourly Weather Khairabad

    Today, 20 April, Saturday

    Time Temperature Precipitation Wind Pressure Humidity
    00:00 +29°C° 0 mm 2 mps 743 mmHg 33%
    01:00 +28°C° 0 mm 2 mps 742 mmHg 34%
    02:00 +28°C° 0 mm 2 mps 742 mmHg 35%
    03:00 +27°C° 0 mm 1 mps 742 mmHg 36%
    04:00 +27°C° 0 mm 1 mps 742 mmHg 38%
    05:00 +26°C° 0 mm 1 mps 742 mmHg 39%
    06:00 +28°C° 0 mm 1 mps 742 mmHg 36%
    07:00 +30°C° 0 mm 1 mps 743 mmHg 32%
    08:00 +32°C° 0 mm 1 mps 743 mmHg 29%
    09:00 +33°C° 0 mm 1 mps 743 mmHg 26%
    10:00 +36°C° 0 mm 2 mps 743 mmHg 23%
    11:00 +37°C° 0 mm 3 mps 743 mmHg 20%
    12:00 +38°C° 0 mm 3 mps 743 mmHg 18%
    13:00 +38°C° 0 mm 3 mps 742 mmHg 17%
    14:00 +39°C° 0 mm 3 mps 741 mmHg 16%
    15:00 +39°C° 0 mm 3 mps 741 mmHg 16%
    16:00 +39°C° 0 mm 3 mps 741 mmHg 16%
    17:00 +39°C° 0 mm 3 mps 740 mmHg 16%
    18:00 +37°C° 0 mm 2 mps 740 mmHg 18%
    19:00 +36°C° 0 mm 2 mps 741 mmHg 19%
    20:00 +34°C° 0 mm 2 mps 741 mmHg 21%
    21:00 +34°C° 0 mm 2 mps 741 mmHg 22%
    22:00 +32°C° 0 mm 2 mps 741 mmHg 23%
    23:00 +31°C° 0 mm 2 mps 741 mmHg 24%

    Tomorrow, 21 April, Sunday

    Time Temperature Precipitation Wind Pressure Humidity
    00:00 +31°C° 0 mm 2 mps 741 mmHg 25%
    01:00 +30°C° 0 mm 2 mps 740 mmHg 27%
    02:00 +29°C° 0 mm 2 mps 740 mmHg 28%
    03:00 +29°C° 0 mm 1 mps 740 mmHg 30%
    04:00 +29°C° 0 mm 1 mps 740 mmHg 31%
    05:00 +28°C° 0 mm 1 mps 740 mmHg 32%
    06:00 +30°C° 0 mm 1 mps 741 mmHg 30%
    07:00 +32°C° 0 mm 1 mps 742 mmHg 27%
    08:00 +34°C° 0 mm 1 mps 742 mmHg 24%
    09:00 +35°C° 0 mm 1 mps 742 mmHg 21%
    10:00 +38°C° 0 mm 2 mps 742 mmHg 19%
    11:00 +40°C° 0 mm 2 mps 742 mmHg 16%
    12:00 +40°C° 0 mm 2 mps 742 mmHg 15%
    13:00 +42°C° 0 mm 3 mps 741 mmHg 14%
    14:00 +42°C° 0 mm 3 mps 740 mmHg 13%
    15:00 +42°C° 0 mm 3 mps 740 mmHg 13%
    16:00 +42°C° 0 mm 3 mps 739 mmHg 13%
    17:00 +40°C° 0 mm 3 mps 739 mmHg 13%
    18:00 +39°C° 0 mm 3 mps 739 mmHg 14%
    19:00 +37°C° 0 mm 2 mps 739 mmHg 15%
    20:00 +36°C° 0 mm 2 mps 740 mmHg 16%
    21:00 +35°C° 0 mm 2 mps 740 mmHg 17%
    22:00 +34°C° 0 mm 1 mps 740 mmHg 18%
    23:00 +33°C° 0 mm 1 mps 740 mmHg 18%

    Day after tomorrow, 22 April, Monday

    Time Temperature Precipitation Wind Pressure Humidity
    00:00 +32°C° 0 mm 1 mps 740 mmHg 20%
    01:00 +31°C° 0 mm 1 mps 739 mmHg 22%
    02:00 +31°C° 0 mm 2 mps 739 mmHg 23%
    03:00 +30°C° 0 mm 2 mps 739 mmHg 25%
    04:00 +30°C° 0 mm 2 mps 740 mmHg 26%
    05:00 +29°C° 0 mm 2 mps 740 mmHg 28%
    06:00 +31°C° 0 mm 2 mps 741 mmHg 25%
    07:00 +34°C° 0 mm 2 mps 741 mmHg 23%
    08:00 +36°C° 0 mm 2 mps 742 mmHg 20%
    09:00 +38°C° 0 mm 2 mps 742 mmHg 18%
    10:00 +40°C° 0 mm 2 mps 742 mmHg 16%
    11:00 +42°C° 0 mm 1 mps 742 mmHg 14%
    12:00 +43°C° 0 mm 3 mps 741 mmHg 13%
    13:00 +44°C° 0 mm 4 mps 741 mmHg 12%
    14:00 +46°C° 0 mm 6 mps 740 mmHg 11%
    15:00 +45°C° 0 mm 5 mps 739 mmHg 12%
    16:00 +45°C° 0 mm 5 mps 739 mmHg 12%
    17:00 +43°C° 0 mm 5 mps 739 mmHg 13%
    18:00 +41°C° 0 mm 4 mps 739 mmHg 14%
    19:00 +39°C° 0 mm 3 mps 740 mmHg 16%
    20:00 +37°C° 0 mm 1 mps 740 mmHg 17%
    21:00 +36°C° 0 mm 1 mps 740 mmHg 18%
    22:00 +36°C° 0 mm 1 mps 740 mmHg 18%
    23:00 +35°C° 0 mm 1 mps 740 mmHg 19%

    23 April, Tuesday

    Time Temperature Precipitation Wind Pressure Humidity
    00:00 +35°C° 0 mm 2 mps 740 mmHg 20%
    01:00 +35°C° 0 mm 2 mps 739 mmHg 22%
    02:00 +34°C° 0 mm 3 mps 739 mmHg 23%
    03:00 +33°C° 0 mm 3 mps 740 mmHg 24%
    04:00 +31°C° 0 mm 3 mps 740 mmHg 25%
    05:00 +31°C° 0 mm 3 mps 740 mmHg 26%
    06:00 +33°C° 0 mm 4 mps 741 mmHg 24%
    07:00 +35°C° 0 mm 5 mps 741 mmHg 23%
    08:00 +38°C° 0 mm 6 mps 742 mmHg 21%
    09:00 +40°C° 0 mm 5 mps 742 mmHg 19%
    10:00 +41°C° 0 mm 5 mps 742 mmHg 17%
    11:00 +43°C° 0 mm 4 mps 742 mmHg 15%
    12:00 +44°C° 0 mm 3 mps 741 mmHg 13%
    13:00 +45°C° 0 mm 2 mps 740 mmHg 11%
    14:00 +45°C° 0 mm 1 mps 740 mmHg 9%
    15:00 +45°C° 0 mm 2 mps 739 mmHg 9%
    16:00 +45°C° 0 mm 2 mps 739 mmHg 9%
    17:00 +43°C° 0 mm 2 mps 739 mmHg 9%
    18:00 +42°C° 0 mm 2 mps 739 mmHg 11%
    19:00 +40°C° 0 mm 2 mps 740 mmHg 13%
    20:00 +38°C° 0 mm 2 mps 740 mmHg 15%
    21:00 +37°C° 0 mm 2 mps 740 mmHg 17%
    22:00 +36°C° 0 mm 2 mps 740 mmHg 20%
    23:00 +35°C° 0 mm 2 mps 741 mmHg 22%

    24 April, Wednesday

    Time Temperature Precipitation Wind Pressure Humidity
    00:00 +35°C° 0 mm 2 mps 740 mmHg 24%
    01:00 +34°C° 0 mm 2 mps 740 mmHg 26%
    02:00 +33°C° 0 mm 3 mps 740 mmHg 28%
    03:00 +33°C° 0 mm 3 mps 740 mmHg 29%
    04:00 +31°C° 0 mm 3 mps 740 mmHg 29%
    05:00 +31°C° 0 mm 3 mps 741 mmHg 30%
    06:00 +34°C° 0 mm 4 mps 741 mmHg 28%
    07:00 +35°C° 0 mm 5 mps 742 mmHg 27%
    08:00 +38°C° 0 mm 6 mps 743 mmHg 25%
    09:00 +40°C° 0 mm 6 mps 743 mmHg 23%
    10:00 +42°C° 0 mm 5 mps 743 mmHg 21%
    11:00 +43°C° 0 mm 5 mps 743 mmHg 19%
    12:00 +44°C° 0 mm 3 mps 742 mmHg 17%
    13:00 +45°C° 0 mm 2 mps 741 mmHg 15%
    14:00 +45°C° 0 mm 1 mps 740 mmHg 13%
    15:00 +44°C° 0 mm 1 mps 740 mmHg 13%
    16:00 +44°C° 0 mm 1 mps 740 mmHg 13%
    17:00 +44°C° 0 mm 1 mps 739 mmHg 13%
    18:00 +42°C° 0 mm 1 mps 740 mmHg 14%
    19:00 +41°C° 0 mm 1 mps 740 mmHg 16%
    20:00 +39°C° 0 mm 1 mps 740 mmHg 17%
    21:00 +38°C° 0 mm 2 mps 740 mmHg 19%
    22:00 +38°C° 0 mm 2 mps 740 mmHg 21%
    23:00 +37°C° 0 mm 2 mps 741 mmHg 22%

    25 April, Thursday

    Time Temperature Precipitation Wind Pressure Humidity
    00:00 +36°C° 0 mm 2 mps 740 mmHg 24%
    01:00 +35°C° 0 mm 2 mps 740 mmHg 26%
    02:00 +34°C° 0 mm 2 mps 740 mmHg 28%
    03:00 +34°C° 0 mm 2 mps 740 mmHg 29%
    04:00 +32°C° 0 mm 2 mps 740 mmHg 30%
    05:00 +32°C° 0 mm 2 mps 741 mmHg 31%
    06:00 +35°C° 0 mm 3 mps 741 mmHg 29%
    07:00 +36°C° 0 mm 4 mps 742 mmHg 27%
    08:00 +39°C° 0 mm 5 mps 743 mmHg 25%
    09:00 +41°C° 0 mm 5 mps 743 mmHg 23%
    10:00 +42°C° 0 mm 4 mps 743 mmHg 22%
    11:00 +44°C° 0 mm 3 mps 742 mmHg 20%
    12:00 +44°C° 0 mm 3 mps 742 mmHg 18%
    13:00 +45°C° 0 mm 2 mps 741 mmHg 16%
    14:00 +46°C° 0 mm 2 mps 740 mmHg 14%
    15:00 +46°C° 0 mm 3 mps 740 mmHg 13%
    16:00 +46°C° 0 mm 3 mps 739 mmHg 12%
    17:00 +47°C° 0 mm 4 mps 739 mmHg 11%
    18:00 +45°C° 0 mm 3 mps 739 mmHg 12%
    19:00 +43°C° 0 mm 3 mps 740 mmHg 13%
    20:00 +40°C° 0 mm 2 mps 740 mmHg 14%
    21:00 +39°C° 0 mm 2 mps 740 mmHg 15%
    22:00 +39°C° 0 mm 2 mps 740 mmHg 15%
    23:00 +38°C° 0 mm 2 mps 740 mmHg 16%
    Show more